Location: Mount Lemmon
(32.4432°N, 110.7577°W)
Time: 13:08:03
(UTC-07:00)

Tiangong 2 - Visible Passes

Search period start: 22 November 2017 00:00
Search period end: 02 December 2017 00:00
Orbit: 386 x 392 km, 42.8° (Epoch: 22 November)

Date Brightness Start Highest point End Pass type
(mag) Time Alt. Az. Time Alt. Az. Time Alt. Az.
22 Nov 4.6 06:30:45 10° SSE 06:31:44 11° SE 06:32:43 10° ESE visible
24 Nov 3.5 06:09:22 10° SSW 06:11:59 24° SE 06:14:38 10° E visible
25 Nov 4.2 05:12:38 10° SSE 05:13:58 12° SE 05:15:19 10° ESE visible
26 Nov 1.7 05:49:43 14° SW 05:52:18 55° SE 05:55:25 10° ENE visible
27 Nov 3.7 04:55:15 21° ESE 04:55:15 21° ESE 04:56:54 10° E visible
27 Nov 1.8 06:27:57 10° W 06:30:56 36° NNW 06:33:55 10° NE visible
28 Nov 1.1 05:32:52 63° N 05:32:52 63° N 05:35:49 10° NE visible
29 Nov 2.6 06:10:13 18° NW 06:11:27 22° NNW 06:14:03 10° NE visible
30 Nov 3.5 05:15:03 17° NE 05:15:03 17° NE 05:16:00 10° NE visible
01 Dec 3.1 05:52:05 16° N 05:52:05 16° N 05:54:07 10° NNE visible
